Time,TemperatureF,DewpointF,PressureIn,WindDirection,WindDirectionDegrees,WindSpeedMPH,WindSpeedGustMPH,Humidity,HourlyPrecipIn,Conditions,Clouds,dailyrainin,SoftwareType,DateUTC
2013-05-13 00:00:00,59.9,25.8,29.78,SW,219,3.0,3.0,27,0.00,,,0.01,Wunderground v.1.15,2013-05-13 06:00:00,
2013-05-13 00:10:00,59.9,25.8,29.78,WNW,287,3.0,11.0,27,0.00,,,0.01,Wunderground v.1.15,2013-05-13 06:10:00,
2013-05-13 00:15:00,60.1,26.0,29.79,SSW,212,4.0,11.0,27,0.00,,,0.00,Wunderground v.1.15,2013-05-13 06:15:00,
2013-05-13 00:25:00,60.2,26.1,29.79,South,179,3.0,5.0,27,0.00,,,0.00,Wunderground v.1.15,2013-05-13 06:25:00,
2013-05-13 00:30:00,60.1,26.0,29.76,NNW,337,3.0,3.0,27,0.00,,,0.00,Wunderground v.1.15,2013-05-13 06:30:00,
2013-05-13 00:40:00,59.8,25.7,29.76,NW,311,2.0,2.0,27,0.00,,,0.00,Wunderground v.1.15,2013-05-13 06:40:00,
2013-05-13 00:45:00,59.8,25.7,29.76,SSE,167,3.0,3.0,27,0.00,,,0.00,Wunderground v.1.15,2013-05-13 06:45:00,
2013-05-13 00:50:00,59.8,25.7,29.76,SSE,167,3.0,3.0,27,0.00,,,0.00,Wunderground v.1.15,2013-05-13 06:50:00,
2013-05-13 00:55:00,59.9,25.8,29.76,WNW,295,3.0,11.0,27,0.00,,,0.00,Wunderground v.1.15,2013-05-13 06:55:00,
2013-05-13 01:05:00,59.9,26.7,29.77,WNW,301,4.0,5.0,28,0.00,,,0.00,Wunderground v.1.15,2013-05-13 07:05:00,
2013-05-13 01:10:00,60.1,26.0,29.77,West,281,4.0,5.0,27,0.00,,,0.00,Wunderground v.1.15,2013-05-13 07:10:00,
2013-05-13 01:15:00,60.4,26.2,29.76,WNW,294,4.0,13.0,27,0.00,,,0.00,Wunderground v.1.15,2013-05-13 07:15:00,
2013-05-13 01:25:00,60.2,26.1,29.76,West,275,6.0,10.0,27,0.00,,,0.00,Wunderground v.1.15,2013-05-13 07:25:00,
2013-05-13 01:30:00,60.2,26.1,29.75,SSW,192,5.0,5.0,27,0.00,,,0.00,Wunderground v.1.15,2013-05-13 07:30:00,
2013-05-13 01:40:00,59.9,26.7,29.75,SSE,154,4.0,4.0,28,0.00,,,0.00,Wunderground v.1.15,2013-05-13 07:40:00,
2013-05-13 01:45:00,59.9,26.7,29.75,South,178,3.0,4.0,28,0.00,,,0.00,Wunderground v.1.15,2013-05-13 07:45:00,
2013-05-13 01:55:00,60.2,26.1,29.75,WNW,299,6.0,7.0,27,0.00,,,0.00,Wunderground v.1.15,2013-05-13 07:55:00,
2013-05-13 02:00:00,60.2,26.9,29.75,WNW,295,5.0,6.0,28,0.00,,,0.00,Wunderground v.1.15,2013-05-13 08:00:00,
2013-05-13 02:10:00,59.9,26.7,29.75,WNW,285,5.0,5.0,28,0.00,,,0.00,Wunderground v.1.15,2013-05-13 08:10:00,
2013-05-13 02:15:00,59.9,26.7,29.75,SW,230,4.0,5.0,28,0.00,,,0.00,Wunderground v.1.15,2013-05-13 08:15:00,
2013-05-13 09:00:00,63.5,28.9,29.84,West,260,3.0,3.0,27,0.00,,,0.00,Wunderground v.1.15,2013-05-13 15:00:00,
2013-05-13 09:10:00,64.2,28.6,29.84,WNW,296,1.0,4.0,26,0.00,,,0.00,Wunderground v.1.15,2013-05-13 15:10:00,
2013-05-13 09:15:00,64.3,28.7,29.83,North,6,2.0,5.0,26,0.00,,,0.00,Wunderground v.1.15,2013-05-13 15:15:00,
2013-05-13 09:25:00,64.8,28.1,29.83,West,277,3.0,7.0,25,0.00,,,0.00,Wunderground v.1.15,2013-05-13 15:25:00,
2013-05-13 09:30:00,64.8,27.1,29.82,NW,316,4.0,7.0,24,0.00,,,0.00,Wunderground v.1.15,2013-05-13 15:30:00,
2013-05-13 09:40:00,65.2,28.5,29.82,West,275,3.0,8.0,25,0.00,,,0.00,Wunderground v.1.15,2013-05-13 15:40:00,
2013-05-13 09:45:00,65.3,28.5,29.83,West,270,3.0,8.0,25,0.00,,,0.00,Wunderground v.1.15,2013-05-13 15:45:00,
2013-05-13 09:55:00,65.8,29.0,29.83,South,172,3.0,3.0,25,0.00,,,0.00,Wunderground v.1.15,2013-05-13 15:55:00,
2013-05-13 10:00:00,66.1,28.2,29.82,WNW,289,2.0,12.0,24,0.00,,,0.00,Wunderground v.1.15,2013-05-13 16:00:00,
2013-05-13 10:10:00,66.3,28.4,29.82,SSW,200,3.0,3.0,24,0.00,,,0.00,Wunderground v.1.15,2013-05-13 16:10:00,
2013-05-13 10:15:00,66.4,28.5,29.83,SSE,155,2.0,3.0,24,0.00,,,0.00,Wunderground v.1.15,2013-05-13 16:15:00,
2013-05-13 10:25:00,66.9,29.9,29.83,SSW,209,3.0,7.0,25,0.00,,,0.00,Wunderground v.1.15,2013-05-13 16:25:00,
2013-05-13 10:30:00,67.1,29.1,29.81,West,271,3.0,3.0,24,0.00,,,0.00,Wunderground v.1.15,2013-05-13 16:30:00,
2013-05-13 10:40:00,67.3,28.2,29.81,South,189,3.0,3.0,23,0.00,,,0.00,Wunderground v.1.15,2013-05-13 16:40:00,
2013-05-13 10:45:00,67.4,29.3,29.81,SW,229,2.0,3.0,24,0.00,,,0.00,Wunderground v.1.15,2013-05-13 16:45:00,
2013-05-13 10:55:00,68.1,28.9,29.81,SSW,192,2.0,2.0,23,0.00,,,0.00,Wunderground v.1.15,2013-05-13 16:55:00,
2013-05-13 11:00:00,68.6,29.3,29.81,WNW,292,1.0,1.0,23,0.00,,,0.00,Wunderground v.1.15,2013-05-13 17:00:00,
2013-05-13 11:10:00,69.1,28.6,29.81,SSW,198,2.0,2.0,22,0.00,,,0.00,Wunderground v.1.15,2013-05-13 17:10:00,
2013-05-13 11:20:00,68.9,28.5,29.79,SW,229,3.0,5.0,22,0.00,,,0.00,Wunderground v.1.15,2013-05-13 17:20:00,
2013-05-13 11:25:00,68.9,30.6,29.79,WNW,298,3.0,5.0,24,0.00,,,0.00,Wunderground v.1.15,2013-05-13 17:25:00,
2013-05-13 11:35:00,69.8,29.2,29.79,West,268,2.0,3.0,22,0.00,,,0.00,Wunderground v.1.15,2013-05-13 17:35:00,
2013-05-13 11:40:00,70.1,29.5,29.79,WNW,294,2.0,2.0,22,0.00,,,0.00,Wunderground v.1.15,2013-05-13 17:40:00,
2013-05-13 11:50:00,70.3,30.7,29.77,South,185,2.0,2.0,23,0.00,,,0.00,Wunderground v.1.15,2013-05-13 17:50:00,
2013-05-13 11:55:00,70.1,28.3,29.77,SSW,200,2.0,2.0,21,0.00,,,0.00,Wunderground v.1.15,2013-05-13 17:55:00,
2013-05-13 12:00:00,69.8,30.3,29.76,West,274,3.0,3.0,23,0.00,,,0.00,Wunderground v.1.15,2013-05-13 18:00:00,
2013-05-13 12:10:00,70.3,29.6,29.76,West,278,4.0,4.0,22,0.00,,,0.00,Wunderground v.1.15,2013-05-13 18:10:00,
2013-05-13 12:15:00,70.6,31.0,29.76,SSE,164,2.0,4.0,23,0.00,,,0.00,Wunderground v.1.15,2013-05-13 18:15:00,
2013-05-13 12:25:00,70.9,29.0,29.76,WSW,239,3.0,3.0,21,0.00,,,0.00,Wunderground v.1.15,2013-05-13 18:25:00,
2013-05-13 12:30:00,71.1,29.2,29.76,NW,318,3.0,3.0,21,0.00,,,0.00,Wunderground v.1.15,2013-05-13 18:30:00,
2013-05-13 12:40:00,70.9,30.1,29.76,WNW,296,3.0,3.0,22,0.00,,,0.00,Wunderground v.1.15,2013-05-13 18:40:00,
2013-05-13 12:45:00,71.1,26.7,29.76,South,169,3.0,3.0,19,0.00,,,0.00,Wunderground v.1.15,2013-05-13 18:45:00,
2013-05-13 12:55:00,72.0,29.9,29.76,WNW,285,1.0,10.0,21,0.00,,,0.00,Wunderground v.1.15,2013-05-13 18:55:00,
2013-05-13 13:00:00,71.8,28.5,29.74,WNW,289,2.0,4.0,20,0.00,,,0.00,Wunderground v.1.15,2013-05-13 19:00:00,
2013-05-13 13:10:00,70.9,30.1,29.74,WNW,291,3.0,3.0,22,0.00,,,0.00,Wunderground v.1.15,2013-05-13 19:10:00,
2013-05-13 13:15:00,71.1,28.0,29.75,WNW,292,4.0,4.0,20,0.00,,,0.00,Wunderground v.1.15,2013-05-13 19:15:00,
2013-05-13 13:25:00,71.3,28.1,29.75,WNW,289,4.0,8.0,20,0.00,,,0.00,Wunderground v.1.15,2013-05-13 19:25:00,
2013-05-13 13:30:00,71.1,26.7,29.75,NW,304,3.0,3.0,19,0.00,,,0.00,Wunderground v.1.15,2013-05-13 19:30:00,
2013-05-13 13:40:00,71.5,32.8,29.75,SSE,168,1.0,5.0,24,0.00,,,0.00,Wunderground v.1.15,2013-05-13 19:40:00,
2013-05-13 13:45:00,72.0,28.7,29.73,West,280,2.0,11.0,20,0.00,,,0.00,Wunderground v.1.15,2013-05-13 19:45:00,
2013-05-13 13:55:00,72.3,27.7,29.73,SW,219,3.0,7.0,19,0.00,,,0.00,Wunderground v.1.15,2013-05-13 19:55:00,
2013-05-13 14:00:00,71.8,28.5,29.72,SSW,206,1.0,1.0,20,0.00,,,0.00,Wunderground v.1.15,2013-05-13 20:00:00,
2013-05-13 14:10:00,71.6,27.1,29.72,SW,215,1.0,1.0,19,0.00,,,0.00,Wunderground v.1.15,2013-05-13 20:10:00,
2013-05-13 14:15:00,71.3,28.1,29.73,WNW,285,0.0,1.0,20,0.00,,,0.00,Wunderground v.1.15,2013-05-13 20:15:00,
2013-05-13 14:25:00,71.6,28.4,29.73,WSW,244,2.0,2.0,20,0.00,,,0.00,Wunderground v.1.15,2013-05-13 20:25:00,
2013-05-13 14:30:00,71.6,28.4,29.74,WNW,294,1.0,1.0,20,0.00,,,0.00,Wunderground v.1.15,2013-05-13 20:30:00,
2013-05-13 14:40:00,73.2,25.7,29.74,SW,223,1.0,1.0,17,0.00,,,0.00,Wunderground v.1.15,2013-05-13 20:40:00,
2013-05-13 14:45:00,72.8,25.4,29.72,WNW,296,1.0,1.0,17,0.00,,,0.00,Wunderground v.1.15,2013-05-13 20:45:00,
2013-05-13 14:50:00,73.0,25.6,29.72,West,277,2.0,2.0,17,0.00,,,0.00,Wunderground v.1.15,2013-05-13 20:50:00,
2013-05-13 14:55:00,73.3,27.2,29.72,SW,217,1.0,2.0,18,0.00,,,0.00,Wunderground v.1.15,2013-05-13 20:55:00,
2013-05-13 15:00:00,74.0,29.1,29.70,South,188,0.0,0.0,19,0.00,,,0.00,Wunderground v.1.15,2013-05-13 21:00:00,
2013-05-13 15:10:00,74.4,30.7,29.70,SW,232,2.0,2.0,20,0.00,,,0.00,Wunderground v.1.15,2013-05-13 21:10:00,
2013-05-13 15:15:00,73.7,28.8,29.70,West,271,2.0,2.0,19,0.00,,,0.00,Wunderground v.1.15,2013-05-13 21:15:00,
2013-05-13 15:25:00,73.0,30.7,29.70,WSW,258,0.0,1.0,21,0.00,,,0.00,Wunderground v.1.15,2013-05-13 21:25:00,
2013-05-13 15:30:00,73.2,28.4,29.69,WSW,258,0.0,0.0,19,0.00,,,0.00,Wunderground v.1.15,2013-05-13 21:30:00,
2013-05-13 15:40:00,73.3,28.5,29.69,North,0,1.0,2.0,19,0.00,,,0.00,Wunderground v.1.15,2013-05-13 21:40:00,
2013-05-13 15:45:00,73.5,27.4,29.67,North,352,3.0,3.0,18,0.00,,,0.00,Wunderground v.1.15,2013-05-13 21:45:00,
2013-05-13 15:55:00,74.2,27.9,29.67,NNW,347,2.0,2.0,18,0.00,,,0.00,Wunderground v.1.15,2013-05-13 21:55:00,
2013-05-13 16:00:00,74.6,26.9,29.67,NNW,333,2.0,2.0,17,0.00,,,0.00,Wunderground v.1.15,2013-05-13 22:00:00,
2013-05-13 16:10:00,74.6,28.3,29.67,SSW,198,1.0,7.0,18,0.00,,,0.00,Wunderground v.1.15,2013-05-13 22:10:00,
2013-05-13 16:15:00,74.0,29.1,29.67,NW,319,3.0,7.0,19,0.00,,,0.00,Wunderground v.1.15,2013-05-13 22:15:00,
2013-05-13 16:25:00,73.3,25.8,29.67,NNW,333,2.0,2.0,17,0.00,,,0.00,Wunderground v.1.15,2013-05-13 22:25:00,
2013-05-13 16:30:00,72.5,26.5,29.68,NNW,333,2.0,2.0,18,0.00,,,0.00,Wunderground v.1.15,2013-05-13 22:30:00,
2013-05-13 16:40:00,72.7,25.3,29.68,SW,215,0.0,0.0,17,0.00,,,0.00,Wunderground v.1.15,2013-05-13 22:40:00,
2013-05-13 16:45:00,73.5,26.0,29.67,NNW,337,0.0,0.0,17,0.00,,,0.00,Wunderground v.1.15,2013-05-13 22:45:00,
2013-05-13 16:50:00,74.0,26.4,29.67,NNW,330,0.0,2.0,17,0.00,,,0.00,Wunderground v.1.15,2013-05-13 22:50:00,
2013-05-13 17:00:00,74.6,25.4,29.67,NW,323,3.0,6.0,16,0.00,,,0.00,Wunderground v.1.15,2013-05-13 23:00:00,
2013-05-13 17:10:00,73.9,24.8,29.67,West,277,2.0,2.0,16,0.00,,,0.00,Wunderground v.1.15,2013-05-13 23:10:00,
2013-05-13 17:15:00,73.7,26.1,29.67,South,175,2.0,2.0,17,0.00,,,0.00,Wunderground v.1.15,2013-05-13 23:15:00,
2013-05-13 17:25:00,73.5,27.4,29.67,SW,226,1.0,2.0,18,0.00,,,0.00,Wunderground v.1.15,2013-05-13 23:25:00,
2013-05-13 17:30:00,73.0,25.6,29.67,South,191,0.0,0.0,17,0.00,,,0.00,Wunderground v.1.15,2013-05-13 23:30:00,
2013-05-13 17:40:00,73.2,25.7,29.67,SSW,198,0.0,0.0,17,0.00,,,0.00,Wunderground v.1.15,2013-05-13 23:40:00,
2013-05-13 17:45:00,73.0,30.7,29.68,SSE,164,0.0,0.0,21,0.00,,,0.00,Wunderground v.1.15,2013-05-13 23:45:00,
2013-05-13 17:55:00,73.3,33.2,29.68,West,267,0.0,0.0,23,0.00,,,0.00,Wunderground v.1.15,2013-05-13 23:55:00,
2013-05-13 18:00:00,72.8,34.9,29.67,WSW,237,1.0,1.0,25,0.00,,,0.00,Wunderground v.1.15,2013-05-14 00:00:00,
2013-05-13 18:10:00,72.3,33.5,29.67,WNW,285,0.0,0.0,24,0.00,,,0.00,Wunderground v.1.15,2013-05-14 00:10:00,
2013-05-13 18:15:00,72.1,33.3,29.66,SSW,198,1.0,1.0,24,0.00,,,0.00,Wunderground v.1.15,2013-05-14 00:15:00,
2013-05-13 18:25:00,71.8,32.0,29.66,SSW,209,0.0,1.0,23,0.00,,,0.00,Wunderground v.1.15,2013-05-14 00:25:00,
2013-05-13 18:30:00,71.5,31.7,29.65,South,172,1.0,1.0,23,0.00,,,0.00,Wunderground v.1.15,2013-05-14 00:30:00,
2013-05-13 18:40:00,71.3,31.6,29.65,WSW,246,0.0,0.0,23,0.00,,,0.00,Wunderground v.1.15,2013-05-14 00:40:00,
2013-05-13 18:45:00,71.1,34.5,29.67,West,260,0.0,0.0,26,0.00,,,0.00,Wunderground v.1.15,2013-05-14 00:45:00,
2013-05-13 18:55:00,70.4,29.7,29.67,WNW,285,1.0,1.0,22,0.00,,,0.00,Wunderground v.1.15,2013-05-14 00:55:00,
2013-05-13 19:00:00,70.1,29.5,29.67,SW,224,0.0,0.0,22,0.00,,,0.00,Wunderground v.1.15,2013-05-14 01:00:00,
2013-05-13 19:10:00,70.3,28.5,29.67,WNW,285,0.0,0.0,21,0.00,,,0.00,Wunderground v.1.15,2013-05-14 01:10:00,
2013-05-13 19:20:00,70.1,31.6,29.68,WNW,285,0.0,0.0,24,0.00,,,0.00,Wunderground v.1.15,2013-05-14 01:20:00,
2013-05-13 19:25:00,69.4,34.9,29.68,WNW,285,0.0,0.0,28,0.00,,,0.00,Wunderground v.1.15,2013-05-14 01:25:00,
2013-05-13 19:30:00,68.8,33.4,29.66,WNW,285,0.0,0.0,27,0.00,,,0.00,Wunderground v.1.15,2013-05-14 01:30:00,
2013-05-13 19:40:00,67.9,29.7,29.66,WNW,302,0.0,4.0,24,0.00,,,0.00,Wunderground v.1.15,2013-05-14 01:40:00,
2013-05-13 19:45:00,66.9,28.9,29.69,WSW,248,1.0,4.0,24,0.00,,,0.00,Wunderground v.1.15,2013-05-14 01:45:00,
2013-05-13 19:55:00,66.1,29.2,29.69,SW,222,0.0,1.0,25,0.00,,,0.00,Wunderground v.1.15,2013-05-14 01:55:00,
2013-05-13 20:00:00,65.5,29.7,29.70,SSW,193,0.0,0.0,26,0.00,,,0.00,Wunderground v.1.15,2013-05-14 02:00:00,
2013-05-13 20:10:00,64.8,30.0,29.70,SW,223,0.0,0.0,27,0.00,,,0.00,Wunderground v.1.15,2013-05-14 02:10:00,
2013-05-13 20:15:00,64.7,30.8,29.70,SW,223,0.0,0.0,28,0.00,,,0.00,Wunderground v.1.15,2013-05-14 02:15:00,
2013-05-13 20:25:00,62.1,32.6,29.70,SW,223,0.0,0.0,33,0.00,,,0.00,Wunderground v.1.15,2013-05-14 02:25:00,
2013-05-13 20:35:00,59.9,32.9,29.70,SW,223,0.0,0.0,36,0.00,,,0.00,Wunderground v.1.15,2013-05-14 02:35:00,
2013-05-13 20:40:00,59.2,32.2,29.70,SW,223,0.0,0.0,36,0.00,,,0.00,Wunderground v.1.15,2013-05-14 02:40:00,
2013-05-13 20:45:00,58.6,32.4,29.73,SW,223,0.0,0.0,37,0.00,,,0.00,Wunderground v.1.15,2013-05-14 02:45:00,
2013-05-13 20:55:00,57.3,33.8,29.73,SW,223,0.0,0.0,41,0.00,,,0.00,Wunderground v.1.15,2013-05-14 02:55:00,
2013-05-13 21:00:00,56.7,33.2,29.75,SW,223,0.0,0.0,41,0.00,,,0.00,Wunderground v.1.15,2013-05-14 03:00:00,
2013-05-13 21:10:00,56.5,34.3,29.75,SW,223,0.0,0.0,43,0.00,,,0.00,Wunderground v.1.15,2013-05-14 03:10:00,
2013-05-13 21:15:00,56.2,32.8,29.75,SW,223,0.0,0.0,41,0.00,,,0.00,Wunderground v.1.15,2013-05-14 03:15:00,
2013-05-13 21:25:00,55.3,34.3,29.75,SW,223,0.0,0.0,45,0.00,,,0.00,Wunderground v.1.15,2013-05-14 03:25:00,
2013-05-13 21:30:00,54.8,33.3,29.75,SW,223,0.0,0.0,44,0.00,,,0.00,Wunderground v.1.15,2013-05-14 03:30:00,
2013-05-13 21:35:00,54.5,33.0,29.75,SW,223,0.0,0.0,44,0.00,,,0.00,Wunderground v.1.15,2013-05-14 03:35:00,
2013-05-13 21:45:00,53.8,34.0,29.75,SW,223,0.0,0.0,47,0.00,,,0.00,Wunderground v.1.15,2013-05-14 03:45:00,
2013-05-13 21:55:00,52.9,34.2,29.75,SW,223,0.0,0.0,49,0.00,,,0.00,Wunderground v.1.15,2013-05-14 03:55:00,
2013-05-13 22:00:00,52.5,34.9,29.76,SW,223,0.0,0.0,51,0.00,,,0.00,Wunderground v.1.15,2013-05-14 04:00:00,
2013-05-13 22:05:00,52.2,35.1,29.76,SW,223,0.0,0.0,52,0.00,,,0.00,Wunderground v.1.15,2013-05-14 04:05:00,
2013-05-13 22:10:00,51.9,35.3,29.76,SW,223,0.0,0.0,53,0.00,,,0.00,Wunderground v.1.15,2013-05-14 04:10:00,
2013-05-13 22:15:00,51.6,35.0,29.76,SW,223,0.0,0.0,53,0.00,,,0.00,Wunderground v.1.15,2013-05-14 04:15:00,
2013-05-13 22:25:00,51.4,34.8,29.76,SW,223,0.0,0.0,53,0.00,,,0.00,Wunderground v.1.15,2013-05-14 04:25:00,
2013-05-13 22:30:00,51.3,35.2,29.75,SW,223,0.0,0.0,54,0.00,,,0.00,Wunderground v.1.15,2013-05-14 04:30:00,
2013-05-13 22:40:00,50.8,35.2,29.75,SW,223,0.0,0.0,55,0.00,,,0.00,Wunderground v.1.15,2013-05-14 04:40:00,
2013-05-13 22:45:00,50.5,34.9,29.75,SW,223,0.0,0.0,55,0.00,,,0.00,Wunderground v.1.15,2013-05-14 04:45:00,
2013-05-13 22:55:00,50.1,35.0,29.75,SW,223,0.0,0.0,56,0.00,,,0.00,Wunderground v.1.15,2013-05-14 04:55:00,
2013-05-13 23:00:00,49.8,35.2,29.75,SW,223,0.0,0.0,57,0.00,,,0.00,Wunderground v.1.15,2013-05-14 05:00:00,
2013-05-13 23:10:00,49.4,34.3,29.75,SW,223,0.0,0.0,56,0.00,,,0.00,Wunderground v.1.15,2013-05-14 05:10:00,
2013-05-13 23:15:00,49.4,34.3,29.75,SW,223,0.0,0.0,56,0.00,,,0.00,Wunderground v.1.15,2013-05-14 05:15:00,
2013-05-13 23:25:00,49.2,34.2,29.75,SW,223,0.0,0.0,56,0.00,,,0.00,Wunderground v.1.15,2013-05-14 05:25:00,
2013-05-13 23:30:00,49.1,34.1,29.74,SW,223,0.0,0.0,56,0.00,,,0.00,Wunderground v.1.15,2013-05-14 05:30:00,
2013-05-13 23:40:00,48.8,34.2,29.74,SW,223,0.0,0.0,57,0.00,,,0.00,Wunderground v.1.15,2013-05-14 05:40:00,
2013-05-13 23:50:00,48.6,33.6,29.74,SW,223,0.0,0.0,56,0.00,,,0.00,Wunderground v.1.15,2013-05-14 05:50:00,
2013-05-13 23:55:00,48.6,33.6,29.74,SW,223,0.0,0.0,56,0.00,,,0.00,Wunderground v.1.15,2013-05-14 05:55:00,